Flag for Burkina Faso Weather past 2 weeks in Koudougou, Burkina Faso

Now
75 °F

Passing clouds.


Feels Like: 74 °F
Forecast: 73 / 86 °F
Wind: 1 mph from North

Location: Ouagadougou Airport

Current Time: Jul 31, 2015 at 5:36:40 AM

Latest Report: Jul 31, 2015 at 5:00 AM


Visibility: N/A

Pressure: 29.92 "Hg

Humidity: 94%

Dew point: 73 °F

Location of KoudougouLocation

Historic Weather in Koudougou — Graph

°F

Koudougou temperature yesterday

Maximum temperature yesterday: 86 °F (at 4:00 PM)
Minimum temperature yesterday: 75 °F (at 3:00 AM)
Average temperature yesterday: 80 °F

Past Weeks' High & Low Weather Summary

 TemperatureHumidityPressure
High91 °F (Jul 17, 3:00 PM)100% (Jul 16, 4:00 AM)30.09 "Hg (Jul 16, 4:00 AM)
Low70 °F (Jul 16, 4:00 AM)52% (Jul 25, 4:00 PM)29.83 "Hg (Jul 19, 3:00 PM)
Average80 °F80%29.95 "Hg
* Reported Jul 16 4:00 AM — Jul 31 4:00 AM, Koudougou, Weather by CustomWeather, © 2015

Note: Actual official high and low records may vary slightly from our data, if they occured in-between our weather recording intervals... More about our weather records

Advertising

Koudougou weather history for previous 24 hours

 ConditionsComfort  
Time TempWeatherWind HumidityBarometerVisibility
4:00 AM
Fri, Jul 31
77 °FPassing clouds.5 mph89%29.92 "HgN/A
3:00 AM77 °FPassing clouds.5 mph94%29.92 "HgN/A
2:00 AM77 °FThunderstorms. Passing clouds.3 mph94%29.92 "HgN/A
1:00 AM79 °FThunderstorms. Passing clouds.2 mph94%29.95 "HgN/A
12:00 AM79 °FPassing clouds.2 mph94%29.95 "HgN/A
11:00 PM
Thu, Jul 30
79 °FPassing clouds.No wind94%29.98 "HgN/A
10:00 PM79 °FThunderstorms. Passing clouds.3 mph94%29.95 "HgN/A
9:00 PM81 °FThunderstorms. Passing clouds.1 mph84%29.95 "HgN/A
8:00 PM81 °FThunderstorms. Passing clouds.2 mph84%29.92 "HgN/A
7:00 PM82 °FPassing clouds.1 mph74%29.89 "HgN/A
6:00 PM86 °FScattered clouds.3 mph66%29.89 "HgN/A
5:00 PM86 °FScattered clouds.5 mph66%29.89 "HgN/A
4:00 PM86 °FScattered clouds.5 mph66%29.89 "HgN/A
3:00 PM84 °FScattered clouds.6 mph70%29.92 "HgN/A
2:00 PM84 °FScattered clouds.5 mph70%29.95 "HgN/A
1:00 PM82 °FPartly sunny.7 mph79%29.95 "HgN/A
12:00 PM81 °FPartly sunny.5 mph79%30.01 "HgN/A
11:00 AM79 °FLight rain. Partly sunny.6 mph94%30.04 "Hg5 mi
10:00 AM79 °FLight rain. Scattered clouds.7 mph89%30.04 "Hg5 mi
9:00 AM81 °FScattered clouds.7 mph79%30.04 "HgN/A
8:00 AM79 °FScattered clouds.8 mph79%30.04 "Hg5 mi
7:00 AM77 °FScattered clouds.3 mph89%30.01 "Hg5 mi
6:00 AM75 °FPassing clouds.6 mph94%29.98 "HgN/A
5:00 AM75 °FClear.5 mph94%29.98 "Hg10 mi
Weather by CustomWeather, © 2015

See weather overviewHow to use our weather pages